Wind_Speed
40 36 36 38 42 45 47 48 48 52 55 58 60 61 61 62 61 64 68 71 72 70 71 73 75 76 76 77 77 77 78 76 75 84 90 98 98 96 97 93 88 77 73
34 36 38 42 45 45 46 49 53 55 57 59 61 60 60 61 64 68 70 67 69 71 71 71 73 72 72 73 74 74 75 77 74 80 86 93 95 99 100 98 93 85 76
36 39 41 44 46 48 50 52 54 58 60 61 61 61 61 64 67 63 62 65 68 68 68 67 67 66 66 66 67 67 69 71 73 80 87 94 93 96 100 99 96 89 81
40 42 45 48 48 49 50 53 56 58 59 59 59 59 63 65 60 60 63 63 62 62 60 59 58 58 59 59 59 60 60 63 67 73 82 90 92 95 98 103 97 91 84
43 46 47 48 48 49 49 50 53 56 55 56 56 61 62 58 58 60 58 55 52 49 47 47 46 45 47 49 49 50 51 54 59 67 76 80 84 93 96 99 98 94 87
47 48 48 48 47 46 47 49 51 53 51 51 58 60 59 58 57 54 51 47 43 40 36 35 34 34 36 38 40 42 45 48 54 62 69 72 79 82 91 94 95 95 84
49 49 48 48 47 44 45 47 48 47 48 53 58 57 57 56 54 52 47 43 39 35 32 28 26 25 26 28 33 37 40 44 50 54 57 63 69 79 85 88 91 93 88
50 50 48 45 43 40 42 44 43 43 47 54 55 56 56 55 53 49 44 39 35 31 28 24 21 19 19 21 25 29 33 39 44 46 50 57 65 72 74 82 86 85 83
50 48 45 40 41 38 38 39 37 41 48 52 53 56 55 54 50 46 41 37 31 27 24 20 15 13 12 14 18 25 31 36 40 45 50 54 61 68 72 79 71 73 83
48 43 40 38 36 35 35 33 32 41 45 46 50 54 54 53 47 44 37 33 29 24 19 14 10 6 6 10 16 21 24 28 34 40 46 53 58 65 69 61 62 69 78
43 39 36 33 28 29 29 27 32 38 39 42 48 52 53 50 45 42 37 31 27 22 16 11 5 1 8 13 18 23 26 28 32 37 43 50 56 56 55 56 61 69 78
34 30 27 22 21 22 21 24 32 35 33 38 46 50 53 48 45 42 36 31 27 22 16 12 8 4 4 6 13 23 30 32 34 38 44 46 45 47 49 51 57 65 71
21 20 16 13 14 15 17 24 29 31 30 36 44 48 52 49 44 40 36 32 29 25 20 16 12 12 12 7 9 17 26 33 37 38 38 38 40 44 46 49 54 58 61
12 9 7 7 8 12 18 25 27 29 28 32 39 44 48 49 44 40 37 31 30 29 24 21 20 21 19 14 9 13 25 30 35 34 35 37 38 38 40 42 46 50 55
3 3 3 4 7 13 20 26 26 30 28 30 35 39 44 48 48 43 39 35 31 31 29 24 25 29 28 22 15 13 14 21 26 31 32 30 31 33 35 38 43 48 52
8 7 5 7 10 15 21 26 26 30 28 26 29 34 38 42 45 44 41 36 34 31 32 30 28 29 28 24 20 18 22 25 27 28 28 28 28 28 30 35 42 49 52
13 10 8 8 11 13 18 25 27 28 30 27 26 29 32 35 39 41 41 39 34 33 32 33 31 28 24 22 18 17 18 21 23 25 26 27 27 28 32 39 45 49 48
13 10 7 8 10 14 18 24 28 28 29 32 31 26 26 29 31 33 34 36 36 34 32 31 31 28 24 20 17 17 17 19 21 22 24 26 27 32 38 43 45 44 43
11 8 7 8 11 15 18 20 24 28 30 29 29 30 27 24 24 24 27 28 28 29 30 31 30 28 25 21 19 18 18 19 20 22 23 25 31 36 38 39 39 39 38
10 9 9 10 12 14 17 19 21 23 25 28 29 28 25 24 20 19 18 18 19 19 19 20 22 23 25 26 25 22 20 20 23 25 27 30 32 32 33 34 35 35 34
12 12 13 14 15 17 19 21 22 22 22 21 22 24 25 24 21 18 13 13 11 10 10 8 8 11 14 16 19 21 22 23 23 25 27 28 29 30 30 30 29 30 32
18 18 19 20 22 23 25 25 26 26 25 25 23 20 19 20 20 17 16 13 10 9 7 6 5 4 7 10 14 17 20 23 25 25 25 25 26 27 28 29 30 30 31
28 27 27 27 28 29 31 32 33 33 32 31 30 27 25 22 20 19 19 16 13 12 15 16 16 16 17 17 18 19 21 22 23 25 28 29 30 30 30 31 31 31 32
43 41 39 38 37 36 35 34 32 31 31 32 33 33 32 31 29 26 23 21 20 20 20 19 22 26 28 29 29 28 28 28 30 30 30 31 31 32 33 34 34 34 34
45 44 43 42 40 39 38 38 38 36 36 36 34 33 31 29 28 30 31 32 32 31 30 30 30 30 31 37 38 38 38 37 36 36 36 37 38 39 39 39 39 39 40
51 49 48 47 46 45 45 42 40 38 39 38 35 33 33 34 33 31 30 31 35 38 40 40 40 40 39 37 36 41 45 45 45 45 44 44 43 43 43 43 42 43 44
Wind_Direction
301 300 299 297 296 297 301 300 301 301 300 299 297 296 294 292 290 290 289 289 287 284 281 277 274 270 267 263 259 254 251 246 239 238 237 236 235 234 235 235 235 234 233
301 300 299 297 299 303 305 304 304 303 301 300 300 301 300 298 296 296 295 293 289 285 282 279 275 271 267 263 258 254 249 245 237 236 234 234 232 231 232 234 232 232 230
300 300 298 300 305 307 307 306 304 302 302 303 305 306 303 302 302 301 298 293 291 290 286 281 277 272 267 263 259 253 248 243 238 234 233 232 229 230 228 231 231 230 230
299 300 301 303 306 306 305 304 303 304 305 305 308 307 307 308 307 306 301 297 293 288 284 279 274 269 265 262 257 252 247 241 236 231 230 230 227 226 226 227 229 228 228
299 299 301 302 303 305 305 303 303 306 309 310 310 311 313 314 314 309 304 300 294 288 282 277 274 268 262 258 253 248 242 237 232 228 227 226 225 224 224 225 225 226 225
299 300 302 304 307 307 307 304 306 311 312 314 316 318 319 322 317 316 312 307 303 298 290 282 274 266 258 252 247 240 235 229 225 223 222 222 221 220 222 224 223 223 223
298 300 304 308 309 309 305 305 309 315 316 320 322 324 327 326 327 325 321 317 313 308 303 295 283 270 256 246 239 233 228 224 222 222 219 218 217 217 217 221 221 219 220
297 300 304 308 310 306 303 307 315 319 324 327 328 331 334 335 334 331 329 327 323 317 311 304 291 274 256 242 233 227 221 217 215 215 212 211 212 214 215 217 218 217 217
298 301 305 308 306 303 304 312 319 325 331 333 333 336 341 340 339 338 336 336 332 327 322 313 298 277 255 232 221 216 210 209 208 205 205 205 206 206 209 213 214 214 211
295 299 303 305 304 306 309 320 326 332 335 337 339 342 346 344 346 344 344 345 345 340 334 324 308 278 231 207 202 200 200 203 203 201 199 198 200 203 207 207 208 209 208
298 301 303 301 306 305 316 325 335 336 340 343 346 349 351 351 353 354 354 356 356 353 356 351 346 188 174 187 187 182 182 189 191 194 192 192 198 202 202 202 205 205 206
298 298 295 302 302 310 325 337 339 341 346 351 354 356 357 357 0 2 1 9 9 11 23 31 48 95 149 183 193 186 179 174 178 182 187 192 193 196 199 201 204 205 207
296 295 300 300 307 326 345 346 347 348 353 359 1 3 3 4 6 10 11 18 23 23 34 46 62 76 81 108 166 181 176 172 174 179 182 184 187 195 199 202 204 205 206
307 305 309 319 334 0 354 355 355 357 359 3 8 8 10 9 12 16 21 26 35 39 41 54 69 75 78 86 125 164 173 176 178 175 175 183 190 196 200 200 201 201 202
358 26 35 23 29 23 5 1 4 7 6 6 11 15 15 15 18 21 25 30 40 49 49 58 76 82 77 78 86 123 144 157 160 166 176 183 189 193 195 194 192 191 192
81 90 81 59 50 28 12 7 10 15 12 10 11 20 19 19 22 27 29 35 42 52 58 59 70 83 83 86 91 122 140 150 158 163 169 174 179 183 183 182 180 181 185
100 99 82 68 54 34 19 15 14 12 15 16 15 17 24 20 23 29 34 39 45 54 63 70 72 76 85 96 103 119 140 149 158 163 169 174 176 176 176 175 176 179 186
102 94 82 66 45 28 19 12 12 17 16 19 17 14 19 24 21 24 33 39 47 56 67 74 78 83 89 94 107 123 139 152 162 169 171 170 173 171 170 171 176 180 188
86 71 52 40 28 20 15 10 7 10 15 15 17 17 14 13 18 23 25 31 41 52 64 74 83 90 94 102 115 128 141 151 157 163 168 169 166 165 168 173 179 188 196
58 38 26 15 6 359 356 358 1 7 6 5 8 11 12 12 5 12 19 22 26 38 52 70 83 91 99 106 111 118 130 144 152 155 156 158 164 168 175 182 190 198 206
35 21 7 356 348 346 343 341 342 345 348 353 357 358 359 0 1 2 353 356 4 9 20 46 73 100 115 124 129 133 136 140 146 153 161 169 176 183 188 194 203 211 217
21 9 358 349 343 339 336 333 331 330 330 329 330 332 337 339 342 343 347 341 311 307 296 287 277 227 186 174 169 168 168 169 171 176 183 188 194 199 205 211 216 220 225
26 18 9 1 352 345 339 336 333 330 329 325 322 319 317 314 313 318 323 316 312 302 273 267 259 251 251 239 223 213 207 204 204 205 203 204 207 213 218 221 225 229 232
39 35 32 28 21 14 10 7 0 354 346 337 331 324 319 313 307 300 292 289 290 285 277 268 254 249 247 240 243 242 233 225 219 217 220 222 222 224 227 229 233 237 241
37 33 32 29 25 22 18 14 10 6 359 353 348 344 337 328 317 308 299 291 281 270 269 264 258 253 248 245 244 238 237 239 238 234 229 226 229 232 234 237 240 243 246
34 31 29 26 22 21 19 14 10 6 2 357 353 347 344 338 336 329 318 305 292 283 276 266 261 260 254 248 245 244 244 241 239 240 241 240 238 238 240 244 247 250 252
Height
10380 10375 10371 10368 10363 10358 10353 10346 10339 10331 10322 10314 10306 10298 10289 10281 10273 10264 10255 10247 10240 10232 10226 10221 10215 10214 10214 10214 10216 10222 10228 10240 10256 10258 10267 10273 10290 10307 10316 10330 10344 10361 10376
10372 10367 10363 10358 10353 10347 10341 10333 10326 10316 10307 10298 10289 10279 10270 10261 10251 10242 10230 10220 10211 10203 10196 10192 10184 10182 10182 10181 10184 10190 10198 10206 10224 10230 10238 10245 10264 10280 10292 10306 10324 10342 10359
10363 10359 10354 10348 10342 10336 10328 10320 10311 10302 10292 10281 10272 10263 10252 10242 10229 10218 10208 10196 10184 10175 10167 10161 10155 10152 10150 10151 10154 10160 10168 10178 10192 10201 10209 10216 10239 10253 10271 10285 10302 10323 10341
10355 10349 10343 10337 10331 10324 10317 10308 10298 10288 10278 10268 10258 10248 10236 10222 10210 10197 10184 10173 10161 10151 10143 10136 10130 10127 10126 10127 10130 10134 10142 10153 10164 10174 10181 10192 10215 10232 10247 10263 10283 10306 10327
10344 10337 10332 10327 10320 10314 10306 10296 10286 10276 10266 10256 10245 10232 10220 10206 10192 10178 10164 10152 10140 10130 10122 10115 10110 10108 10107 10107 10110 10116 10123 10131 10141 10150 10158 10174 10195 10210 10229 10246 10267 10286 10306
10332 10326 10321 10316 10310 10303 10295 10284 10275 10265 10256 10245 10233 10219 10204 10191 10176 10161 10145 10133 10122 10112 10105 10098 10094 10092 10091 10093 10096 10101 10107 10115 10123 10131 10142 10161 10175 10197 10212 10228 10251 10268 10300
10320 10315 10311 10305 10299 10293 10283 10274 10266 10257 10247 10236 10222 10208 10194 10178 10162 10146 10131 10119 10108 10099 10091 10085 10081 10079 10079 10081 10084 10089 10095 10103 10111 10121 10136 10149 10166 10180 10197 10213 10233 10259 10280
10309 10304 10300 10295 10289 10282 10273 10266 10259 10249 10240 10228 10213 10199 10184 10167 10152 10136 10122 10109 10098 10089 10082 10076 10073 10071 10071 10074 10077 10082 10088 10095 10104 10116 10127 10141 10154 10169 10186 10204 10222 10246 10276
10297 10293 10290 10286 10279 10273 10267 10261 10253 10243 10234 10222 10208 10194 10178 10161 10145 10129 10115 10103 10092 10083 10076 10071 10068 10066 10067 10069 10073 10077 10082 10090 10099 10108 10119 10133 10146 10160 10175 10193 10223 10245 10266
10285 10283 10281 10276 10272 10268 10262 10257 10250 10241 10231 10219 10206 10190 10174 10157 10142 10127 10114 10101 10090 10081 10075 10070 10066 10065 10067 10067 10070 10076 10082 10089 10097 10107 10117 10129 10143 10157 10173 10198 10219 10238 10259
10276 10274 10271 10267 10266 10262 10258 10253 10247 10238 10228 10217 10203 10187 10172 10156 10141 10127 10114 10102 10091 10082 10076 10071 10068 10067 10066 10068 10072 10077 10083 10091 10099 10110 10121 10132 10145 10161 10180 10198 10214 10232 10247
10266 10264 10262 10263 10260 10258 10256 10251 10244 10235 10226 10215 10202 10188 10172 10157 10143 10130 10118 10105 10094 10085 10080 10075 10072 10071 10072 10075 10078 10081 10085 10094 10103 10113 10124 10137 10153 10167 10183 10198 10212 10227 10243
10256 10257 10257 10257 10257 10255 10254 10249 10241 10232 10224 10214 10203 10190 10175 10161 10147 10135 10123 10111 10101 10092 10086 10082 10079 10079 10080 10083 10086 10090 10095 10101 10109 10120 10132 10145 10158 10171 10183 10197 10209 10224 10240
10252 10253 10254 10255 10255 10255 10252 10247 10240 10232 10224 10216 10206 10195 10183 10169 10155 10141 10129 10120 10110 10102 10096 10091 10088 10088 10089 10092 10096 10100 10104 10111 10118 10130 10142 10153 10164 10175 10186 10198 10210 10223 10236
10250 10252 10253 10255 10256 10255 10251 10245 10239 10231 10224 10218 10210 10200 10190 10177 10163 10151 10140 10130 10121 10113 10109 10104 10100 10099 10101 10105 10109 10113 10119 10126 10134 10144 10152 10161 10170 10178 10187 10197 10208 10220 10233
10251 10253 10255 10256 10257 10255 10252 10246 10241 10234 10227 10221 10214 10205 10196 10187 10176 10164 10153 10143 10135 10127 10122 10118 10116 10113 10115 10119 10123 10128 10133 10139 10146 10153 10161 10168 10175 10182 10189 10198 10208 10219 10232
10254 10256 10258 10259 10259 10257 10254 10249 10243 10238 10231 10224 10217 10211 10203 10195 10187 10178 10168 10158 10150 10143 10138 10134 10132 10132 10133 10134 10138 10142 10147 10151 10156 10161 10165 10171 10178 10184 10192 10201 10211 10221 10233
10259 10260 10261 10261 10260 10257 10255 10251 10246 10240 10234 10228 10221 10215 10209 10202 10197 10190 10183 10175 10167 10160 10154 10150 10148 10147 10147 10149 10150 10153 10157 10160 10164 10168 10172 10177 10182 10188 10196 10204 10215 10225 10235
10265 10266 10265 10264 10263 10260 10257 10254 10249 10243 10238 10233 10227 10219 10212 10208 10203 10198 10193 10188 10183 10177 10171 10166 10162 10160 10160 10160 10161 10162 10164 10167 10171 10174 10178 10183 10188 10194 10201 10209 10217 10226 10232
10272 10271 10269 10267 10264 10262 10259 10255 10251 10246 10240 10235 10229 10224 10218 10213 10207 10203 10199 10196 10193 10189 10185 10181 10177 10174 10172 10170 10170 10171 10172 10174 10176 10178 10183 10188 10193 10200 10206 10212 10218 10224 10230
10277 10275 10273 10270 10266 10262 10258 10253 10249 10244 10240 10236 10231 10226 10220 10215 10211 10207 10203 10201 10198 10196 10193 10191 10188 10185 10182 10181 10180 10179 10179 10181 10183 10187 10190 10193 10198 10202 10207 10212 10218 10222 10226
10282 10279 10275 10271 10267 10263 10258 10253 10248 10244 10240 10235 10231 10227 10223 10218 10213 10208 10205 10201 10198 10196 10194 10193 10191 10189 10188 10186 10184 10184 10184 10185 10186 10189 10192 10195 10198 10201 10205 10209 10213 10216 10219
10286 10282 10278 10273 10268 10262 10256 10251 10245 10240 10235 10230 10225 10221 10217 10214 10210 10207 10204 10200 10197 10194 10192 10190 10189 10187 10187 10185 10184 10183 10182 10183 10184 10186 10188 10190 10193 10196 10200 10203 10206 10209 10211
10290 10285 10280 10274 10268 10262 10255 10249 10242 10236 10230 10223 10219 10214 10210 10206 10202 10199 10197 10194 10191 10188 10184 10182 10179 10178 10177 10175 10177 10177 10177 10176 10176 10178 10181 10184 10186 10188 10191 10194 10196 10199 10201
10298 10292 10285 10279 10272 10265 10258 10250 10243 10235 10228 10221 10214 10208 10202 10197 10193 10189 10185 10181 10178 10175 10174 10171 10168 10165 10163 10163 10162 10162 10164 10167 10168 10169 10170 10172 10175 10178 10180 10182 10185 10187 10190
10302 10296 10289 10282 10275 10267 10259 10252 10244 10236 10228 10220 10212 10205 10199 10192 10186 10179 10173 10169 10164 10161 10159 10157 10153 10152 10150 10148 10147 10149 10150 10151 10153 10156 10158 10160 10162 10164 10167 10170 10173 10174 10176